星链-6125 (STARLINK-6125 )

导读 | 豆包AI

STARLINK-6125是美国太空探索技术公司(SpaceX)旗下星链(Starlink)低轨互联网星座的成员卫星,于2023年6月23日由猎鹰9号火箭发射入轨。星链星座旨在为全球提供高速低延迟宽带互联网服务,尤其覆盖基础设施匮乏地区。STARLINK-6125采用成熟技术设计,配备霍尔推进器,具备自主避撞能力,寿命结束后会主动离轨坠入大气层烧毁,是星链全球组网过程中发射的卫星之一。

Basic Information
目录编号:
57114
目录名称:
STARLINK-6125
国际标识:
2023-090P
轨道中心:
EARTH
卫星名称:
星链-6125
卫星全名:
星链-6125 (STARLINK-6125 )
卫星状态:
在轨 (已飞行996 天)
发射日期:
2023-06-23 UTC
国别 :
美国 (US)
星等 :
--
Orbit Information
数据来源 国际轨道数据 AOE轨道数据
星历时间 2026-03-15T01:50:21+0800
1天前
查看轨道信息
2026-03-12T16:00:00+0800
3天前
查看轨道信息
半长轴 6937.215km 6937.218km
偏心率 0.000119 0.0001071
轨道倾角 43.002° 43.004°
近地点辐角 268.493° 249.294°
升交点赤经 247.180° 260.280°
平近点角 91.578° 19.975°
近地点 558.252km 558.338km
远地点 559.904km 559.824km
周期 95.838分钟 95.838分钟
每日圈数 15.025366 15.025356
Detailed Information
固有亮度:
5
最大亮度:
2.4
卫星平台:
Starlink v1.5
覆盖范围:
全球
运营商:
太空探索技术公司
运营商所在国:
美国
制造商(研发单位):
太空探索技术公司
制造商所在国:
美国
使用方式:
暂无
Satellite Introduction
星链(Starlink)计划是由太空探索技术公司(SpaceX)提出的一个巨型低轨卫星互联网星座项目,计划在2019年至2024年间在太空搭建由约1.2万颗卫星组成的“星链”网络,其中1584颗将部署在地球上空550千米处的近地轨道,并从2020年开始工作。该卫星仍在工作。
2D Orbit Map
3D Orbit Map
Orbit Altitude Analysis Chart
Orbit Inclination Analysis Chart
Orbit Comprehensive Analysis Chart
View Comprehensive Chart